AAY305 KLAS-KSAN

Flight info

Callsign AAY305
Flight time 0h 50m
Altitude 32000
Route RADYR2 LVELL LUCKI1
Aircraft A319/M-SDE3FGHIRWY/LB1

Departure

Time 2026-05-03 20:31
Airport Harry Reid International Airport (KLAS)

Arrival

Time 2026-05-03 21:21
Airport San Diego International Airport (KSAN)
Time Latitude Longitude Altitude Speed Heading
2026-05-03 20:15 36.08746 -115.15219 2109 ft 0 kts 308°
2026-05-03 20:17 36.08749 -115.15225 2109 ft 2 kts 308°
2026-05-03 20:17 36.08762 -115.15245 2110 ft 4 kts 310°
2026-05-03 20:17 36.08780 -115.15280 2110 ft 5 kts 293°
2026-05-03 20:18 36.08787 -115.15320 2110 ft 4 kts 274°
2026-05-03 20:18 36.08787 -115.15342 2111 ft 0 kts 269°
2026-05-03 20:22 36.08787 -115.15343 2111 ft 1 kts 269°
2026-05-03 20:22 36.08787 -115.15362 2111 ft 4 kts 269°
2026-05-03 20:22 36.08786 -115.15403 2113 ft 6 kts 269°
2026-05-03 20:22 36.08782 -115.15463 2115 ft 8 kts 255°
2026-05-03 20:23 36.08765 -115.15532 2117 ft 9 kts 256°
2026-05-03 20:23 36.08762 -115.15617 2120 ft 11 kts 271°
2026-05-03 20:23 36.08800 -115.15700 2122 ft 13 kts 332°
2026-05-03 20:23 36.08901 -115.15680 2122 ft 18 kts 25°
2026-05-03 20:24 36.09035 -115.15604 2120 ft 23 kts 24°
2026-05-03 20:24 36.09171 -115.15526 2124 ft 21 kts 24°
2026-05-03 20:24 36.09301 -115.15452 2124 ft 20 kts 25°
2026-05-03 20:24 36.09423 -115.15381 2127 ft 19 kts 25°
2026-05-03 20:25 36.09548 -115.15310 2124 ft 21 kts 25°
2026-05-03 20:25 36.09672 -115.15240 2123 ft 17 kts 22°
2026-05-03 20:25 36.09765 -115.15209 2121 ft 12 kts 346°
2026-05-03 20:25 36.09814 -115.15286 2123 ft 11 kts 296°
2026-05-03 20:26 36.09846 -115.15369 2123 ft 11 kts 295°
2026-05-03 20:26 36.09885 -115.15469 2121 ft 14 kts 295°
2026-05-03 20:26 36.09915 -115.15550 2121 ft 3 kts 294°
2026-05-03 20:27 36.09915 -115.15551 2121 ft 0 kts 295°
2026-05-03 20:27 36.09926 -115.15580 2121 ft 7 kts 294°
2026-05-03 20:27 36.09948 -115.15640 2123 ft 9 kts 293°
2026-05-03 20:27 36.09916 -115.15677 2122 ft 6 kts 200°
2026-05-03 20:28 36.09906 -115.15682 2124 ft 0 kts 206°
2026-05-03 20:30 36.09889 -115.15693 2122 ft 7 kts 206°
2026-05-03 20:30 36.09634 -115.15842 2121 ft 77 kts 204°
2026-05-03 20:30 36.08961 -115.16227 2125 ft 134 kts 205°
2026-05-03 20:30 36.07980 -115.16798 2161 ft 174 kts 204°
2026-05-03 20:31 36.06901 -115.17387 2831 ft 163 kts 202°
2026-05-03 20:31 36.05830 -115.17942 3327 ft 172 kts 195°
2026-05-03 20:31 36.04693 -115.18524 3789 ft 182 kts 198°
2026-05-03 20:31 36.03481 -115.19167 4159 ft 201 kts 200°
2026-05-03 20:32 36.02118 -115.19910 4474 ft 228 kts 199°
2026-05-03 20:32 36.00591 -115.20748 4780 ft 248 kts 201°
2026-05-03 20:32 35.98955 -115.21581 5450 ft 258 kts 199°
2026-05-03 20:32 35.97275 -115.22369 6406 ft 259 kts 198°
2026-05-03 20:33 35.95577 -115.23139 7310 ft 262 kts 198°
2026-05-03 20:33 35.93851 -115.23912 8222 ft 265 kts 197°
2026-05-03 20:33 35.92110 -115.24690 9202 ft 267 kts 198°
2026-05-03 20:33 35.90360 -115.25478 10123 ft 270 kts 198°
2026-05-03 20:34 35.88535 -115.26300 10593 ft 291 kts 198°
2026-05-03 20:34 35.86582 -115.27179 11187 ft 303 kts 198°
2026-05-03 20:34 35.84584 -115.28083 11966 ft 309 kts 199°
2026-05-03 20:34 35.82559 -115.29001 12811 ft 312 kts 199°
2026-05-03 20:35 35.80511 -115.29929 13657 ft 315 kts 199°
2026-05-03 20:35 35.78438 -115.30867 14375 ft 319 kts 199°
2026-05-03 20:35 35.76342 -115.31813 15118 ft 322 kts 199°
2026-05-03 20:35 35.74254 -115.32758 15822 ft 325 kts 200°
2026-05-03 20:36 35.72120 -115.33723 16563 ft 329 kts 200°
2026-05-03 20:36 35.69960 -115.34701 17273 ft 332 kts 200°
2026-05-03 20:36 35.67779 -115.35687 17986 ft 336 kts 200°
2026-05-03 20:36 35.65577 -115.36679 18630 ft 339 kts 200°
2026-05-03 20:37 35.63356 -115.37678 19285 ft 340 kts 201°
2026-05-03 20:37 35.61069 -115.38467 19958 ft 344 kts 192°
2026-05-03 20:37 35.58668 -115.38643 20638 ft 349 kts 181°
2026-05-03 20:37 35.56233 -115.38465 21309 ft 351 kts 181°
2026-05-03 20:38 35.54579 -115.38342 21761 ft 353 kts 181°
2026-05-03 20:38 35.52157 -115.38166 22399 ft 355 kts 182°
2026-05-03 20:38 35.49684 -115.37989 23029 ft 357 kts 182°
2026-05-03 20:38 35.47197 -115.37812 23619 ft 360 kts 183°
2026-05-03 20:39 35.44690 -115.37638 24100 ft 363 kts 184°
2026-05-03 20:39 35.42158 -115.37464 24572 ft 366 kts 184°
2026-05-03 20:39 35.39606 -115.37286 25009 ft 369 kts 185°
2026-05-03 20:39 35.37038 -115.37103 25469 ft 371 kts 186°
2026-05-03 20:40 35.34451 -115.36918 25911 ft 374 kts 186°
2026-05-03 20:40 35.31836 -115.36730 26336 ft 378 kts 187°
2026-05-03 20:40 35.29198 -115.36544 26757 ft 381 kts 187°
2026-05-03 20:40 35.26540 -115.36358 27176 ft 384 kts 187°
2026-05-03 20:41 35.23862 -115.36167 27562 ft 387 kts 188°
2026-05-03 20:41 35.21164 -115.35980 27981 ft 389 kts 188°
2026-05-03 20:41 35.18451 -115.35791 28389 ft 392 kts 188°
2026-05-03 20:41 35.15715 -115.35600 28702 ft 396 kts 188°
2026-05-03 20:42 35.12952 -115.35406 29050 ft 398 kts 188°
2026-05-03 20:42 35.10173 -115.35210 29429 ft 402 kts 188°
2026-05-03 20:42 35.07367 -115.35014 29815 ft 406 kts 188°
2026-05-03 20:42 35.04545 -115.34819 30175 ft 408 kts 189°
2026-05-03 20:43 35.01696 -115.34623 30498 ft 411 kts 189°
2026-05-03 20:43 34.98830 -115.34423 30822 ft 414 kts 189°
2026-05-03 20:43 34.95947 -115.34219 31140 ft 416 kts 189°
2026-05-03 20:43 34.93045 -115.34016 31390 ft 419 kts 188°
2026-05-03 20:44 34.90118 -115.33817 31672 ft 423 kts 188°
2026-05-03 20:44 34.87216 -115.33615 31774 ft 422 kts 188°
2026-05-03 20:44 34.84344 -115.33395 31785 ft 405 kts 188°
2026-05-03 20:44 34.81582 -115.33176 31785 ft 392 kts 189°
2026-05-03 20:45 34.78919 -115.33185 31782 ft 373 kts 198°
2026-05-03 20:45 34.76435 -115.33806 31776 ft 358 kts 208°
2026-05-03 20:45 34.74114 -115.34827 31778 ft 353 kts 211°
2026-05-03 20:46 34.69501 -115.36870 31767 ft 354 kts 210°
2026-05-03 20:46 34.64865 -115.38897 31769 ft 354 kts 210°
2026-05-03 20:47 34.60231 -115.40915 31764 ft 354 kts 210°
2026-05-03 20:47 34.55592 -115.42934 31757 ft 354 kts 210°
2026-05-03 20:48 34.50957 -115.44957 31759 ft 354 kts 210°
2026-05-03 20:48 34.46329 -115.46980 31758 ft 354 kts 210°
2026-05-03 20:49 34.41701 -115.48996 31729 ft 353 kts 210°
2026-05-03 20:49 34.37071 -115.51000 31735 ft 354 kts 210°
2026-05-03 20:50 34.32477 -115.53085 31737 ft 347 kts 216°
2026-05-03 20:50 34.28395 -115.56046 31744 ft 342 kts 220°
2026-05-03 20:51 34.24341 -115.59052 31747 ft 342 kts 220°
2026-05-03 20:51 34.20187 -115.61895 31753 ft 351 kts 212°
2026-05-03 20:52 34.15659 -115.64029 31729 ft 352 kts 211°
2026-05-03 20:52 34.11104 -115.66177 31770 ft 351 kts 211°
2026-05-03 20:53 34.06557 -115.68324 31771 ft 350 kts 211°
2026-05-03 20:53 34.02015 -115.70463 31790 ft 350 kts 211°
2026-05-03 20:54 33.97473 -115.72598 31789 ft 350 kts 211°
2026-05-03 20:54 33.90667 -115.75808 31757 ft 350 kts 212°
2026-05-03 20:55 33.86168 -115.78011 31772 ft 349 kts 213°
2026-05-03 20:55 33.81673 -115.80233 31778 ft 349 kts 213°
2026-05-03 20:56 33.77131 -115.82474 31806 ft 360 kts 212°
2026-05-03 20:56 33.74811 -115.83599 31293 ft 360 kts 212°
2026-05-03 20:56 33.72446 -115.84716 30351 ft 369 kts 211°
2026-05-03 20:57 33.70043 -115.85833 29660 ft 371 kts 210°
2026-05-03 20:57 33.67676 -115.86920 29128 ft 364 kts 210°
2026-05-03 20:57 33.65355 -115.87977 28615 ft 350 kts 210°
2026-05-03 20:57 33.63100 -115.89009 28182 ft 345 kts 210°
2026-05-03 20:58 33.60874 -115.90039 27729 ft 341 kts 210°
2026-05-03 20:58 33.58670 -115.91067 27276 ft 339 kts 210°
2026-05-03 20:58 33.56477 -115.92098 26825 ft 337 kts 210°
2026-05-03 20:58 33.54300 -115.93124 26368 ft 335 kts 210°
2026-05-03 20:59 33.52269 -115.94382 25917 ft 323 kts 221°
2026-05-03 20:59 33.50613 -115.96128 25523 ft 312 kts 233°
2026-05-03 20:59 33.49336 -115.98192 25147 ft 305 kts 238°
2026-05-03 20:59 33.48136 -116.00272 24771 ft 302 kts 238°
2026-05-03 21:00 33.46942 -116.02329 24411 ft 300 kts 238°
2026-05-03 21:00 33.46154 -116.03683 24174 ft 299 kts 238°
2026-05-03 21:00 33.44569 -116.06403 23687 ft 297 kts 238°
2026-05-03 21:00 33.43389 -116.08430 23317 ft 296 kts 238°
2026-05-03 21:01 33.42232 -116.10421 22919 ft 295 kts 238°
2026-05-03 21:01 33.41064 -116.12434 22538 ft 294 kts 238°
2026-05-03 21:01 33.39899 -116.14435 22197 ft 293 kts 237°
2026-05-03 21:01 33.38739 -116.16422 21829 ft 289 kts 238°
2026-05-03 21:02 33.37587 -116.18399 21491 ft 291 kts 237°
2026-05-03 21:02 33.36431 -116.20383 21136 ft 290 kts 236°
2026-05-03 21:02 33.35278 -116.22359 20790 ft 289 kts 237°
2026-05-03 21:02 33.34044 -116.24250 20435 ft 290 kts 228°
2026-05-03 21:03 33.32450 -116.25742 20092 ft 295 kts 216°
2026-05-03 21:03 33.30612 -116.26849 19776 ft 296 kts 212°
2026-05-03 21:03 33.28767 -116.27924 19418 ft 294 kts 212°
2026-05-03 21:03 33.26931 -116.28997 19061 ft 293 kts 212°
2026-05-03 21:04 33.25105 -116.30066 18699 ft 292 kts 212°
2026-05-03 21:04 33.23283 -116.31135 18350 ft 291 kts 211°
2026-05-03 21:04 33.21470 -116.32198 17969 ft 290 kts 211°
2026-05-03 21:04 33.19661 -116.33258 17600 ft 289 kts 211°
2026-05-03 21:05 33.17855 -116.34314 17221 ft 289 kts 211°
2026-05-03 21:05 33.16054 -116.35368 16851 ft 288 kts 210°
2026-05-03 21:05 33.14258 -116.36415 16496 ft 287 kts 210°
2026-05-03 21:05 33.12490 -116.37446 16149 ft 286 kts 211°
2026-05-03 21:06 33.10698 -116.38494 15850 ft 287 kts 210°
2026-05-03 21:06 33.08910 -116.39540 15503 ft 285 kts 209°
2026-05-03 21:06 33.07131 -116.40580 15157 ft 284 kts 209°
2026-05-03 21:06 33.05353 -116.41616 14814 ft 284 kts 208°
2026-05-03 21:07 33.03576 -116.42651 14466 ft 286 kts 208°
2026-05-03 21:07 33.01789 -116.43691 14118 ft 285 kts 208°
2026-05-03 21:07 33.00091 -116.44885 13771 ft 283 kts 218°
2026-05-03 21:07 32.98591 -116.46394 13404 ft 282 kts 221°
2026-05-03 21:08 32.97105 -116.47903 13035 ft 280 kts 220°
2026-05-03 21:08 32.95625 -116.49400 12686 ft 279 kts 221°
2026-05-03 21:08 32.94149 -116.50889 12373 ft 278 kts 219°
2026-05-03 21:08 32.92676 -116.52373 12022 ft 276 kts 219°
2026-05-03 21:09 32.91210 -116.53849 11680 ft 275 kts 219°
2026-05-03 21:09 32.89766 -116.55300 11342 ft 275 kts 218°
2026-05-03 21:09 32.88305 -116.56764 11015 ft 274 kts 220°
2026-05-03 21:09 32.86852 -116.58223 10661 ft 273 kts 219°
2026-05-03 21:10 32.85406 -116.59679 10320 ft 271 kts 219°
2026-05-03 21:10 32.83972 -116.61127 9984 ft 269 kts 219°
2026-05-03 21:10 32.82551 -116.62561 9625 ft 267 kts 219°
2026-05-03 21:10 32.81140 -116.63985 9299 ft 265 kts 219°
2026-05-03 21:11 32.79740 -116.65399 8966 ft 264 kts 219°
2026-05-03 21:11 32.78342 -116.66808 8634 ft 263 kts 219°
2026-05-03 21:11 32.77113 -116.68414 8306 ft 265 kts 233°
2026-05-03 21:11 32.76192 -116.70313 7972 ft 265 kts 238°
2026-05-03 21:12 32.75297 -116.72220 7639 ft 262 kts 237°
2026-05-03 21:12 32.74416 -116.74092 7318 ft 257 kts 237°
2026-05-03 21:12 32.73550 -116.75922 7002 ft 251 kts 237°
2026-05-03 21:12 32.72699 -116.77711 6695 ft 246 kts 237°
2026-05-03 21:13 32.71863 -116.79468 6381 ft 242 kts 237°
2026-05-03 21:13 32.71054 -116.81176 6075 ft 232 kts 238°
2026-05-03 21:13 32.70409 -116.82903 5794 ft 231 kts 247°
2026-05-03 21:13 32.69858 -116.84677 5532 ft 227 kts 246°
2026-05-03 21:14 32.69312 -116.86425 5276 ft 224 kts 247°
2026-05-03 21:14 32.68775 -116.88141 5049 ft 219 kts 246°
2026-05-03 21:14 32.68273 -116.89806 4979 ft 208 kts 248°
2026-05-03 21:14 32.67814 -116.91377 4979 ft 195 kts 249°
2026-05-03 21:15 32.67410 -116.92893 4971 ft 192 kts 256°
2026-05-03 21:15 32.67404 -116.94484 4981 ft 196 kts 278°
2026-05-03 21:15 32.67764 -116.95993 5008 ft 181 kts 283°
2026-05-03 21:15 32.68097 -116.97350 4977 ft 161 kts 282°
2026-05-03 21:16 32.68395 -116.98576 4940 ft 151 kts 281°
2026-05-03 21:16 32.68681 -116.99754 4721 ft 144 kts 282°
2026-05-03 21:16 32.68954 -117.00867 4388 ft 140 kts 284°
2026-05-03 21:16 32.69231 -117.02005 3918 ft 146 kts 284°
2026-05-03 21:17 32.69502 -117.03158 3566 ft 144 kts 283°
2026-05-03 21:17 32.69676 -117.03909 3359 ft 141 kts 284°
2026-05-03 21:17 32.70043 -117.05330 3096 ft 127 kts 284°
2026-05-03 21:17 32.70296 -117.06323 2804 ft 125 kts 284°
2026-05-03 21:18 32.70531 -117.07294 2521 ft 119 kts 285°
2026-05-03 21:18 32.70744 -117.08226 2151 ft 118 kts 284°
2026-05-03 21:18 32.70967 -117.09170 1746 ft 120 kts 285°
2026-05-03 21:18 32.71195 -117.10091 1426 ft 114 kts 286°
2026-05-03 21:19 32.71423 -117.10970 1237 ft 106 kts 284°
2026-05-03 21:19 32.71634 -117.11817 947 ft 114 kts 286°
2026-05-03 21:19 32.71869 -117.12821 1072 ft 137 kts 285°
2026-05-03 21:19 32.72136 -117.13967 1061 ft 143 kts 285°
2026-05-03 21:20 32.72414 -117.15115 890 ft 147 kts 287°
2026-05-03 21:20 32.72703 -117.16232 580 ft 137 kts 285°
2026-05-03 21:20 32.72952 -117.17291 280 ft 129 kts 284°
2026-05-03 21:20 32.73192 -117.18284 46 ft 116 kts 285°
2026-05-03 21:21 32.73378 -117.19058 26 ft 75 kts 287°
2026-05-03 21:21 32.73476 -117.19463 26 ft 34 kts 285°
2026-05-03 21:21 32.73533 -117.19716 30 ft 25 kts 276°
2026-05-03 21:21 32.73503 -117.19856 28 ft 17 kts 250°
2026-05-03 21:22 32.73489 -117.19947 26 ft 2 kts 276°
2026-05-03 21:22 32.73492 -117.19964 30 ft 0 kts 289°
2026-05-03 21:22 32.73498 -117.19983 28 ft 6 kts 290°
2026-05-03 21:22 32.73517 -117.20055 26 ft 10 kts 285°
2026-05-03 21:23 32.73536 -117.20133 29 ft 9 kts 286°
2026-05-03 21:23 32.73545 -117.20212 25 ft 11 kts 249°
2026-05-03 21:23 32.73471 -117.20250 23 ft 13 kts 194°
2026-05-03 21:23 32.73421 -117.20289 22 ft 5 kts 269°
2026-05-03 21:24 32.73419 -117.20324 22 ft 3 kts 263°
2026-05-03 21:24 32.73418 -117.20334 24 ft 0 kts 264°